Regional Weather Roundup
Issued by NWS Goodland, KS

Home | Current Version | Previous Version | Text Only | Print | Product List | Glossary Off
Versions: 1 2 3 4 5 6 7 8 9 10 11 12 13 14 15 16 17 18 19 20 21 22 23 24 25 26 27 28 29 30 31 32 33 34 35 36 37 38 39 40 41 42 43 44 45 46 47 48 49 50

000
ASUS43 KGLD 121059
RWRGLD

GOODLAND FORECAST AREA HOURLY WEATHER ROUNDUP
NATIONAL WEATHER SERVICE GOODLAND KS
400 AM MST FRI FEB 12 2016

...OFFICIAL OBSERVATIONS...

CITY           SKY/WX    TMP DP  RH WIND       PRES   REMARKS
GOODLAND KS    CLOUDY    29  24  82 W8        30.29R
HILL CITY KS   NOT AVBL
IMPERIAL NEB   CLEAR     28  23  81 W3        30.27S
MCCOOK NEB     CLEAR     27  24  89 W9        30.29R
AKRON CO       CLOUDY    33  26  75 W9        30.27S
BURLINGTON CO  CLOUDY    31  25  78 W8        30.29R
LIMON CO       CLOUDY    19  17  92 N7        30.30F
$$

...UNOFFICIAL OBSERVATIONS...

CITY           SKY/WX    TMP DP  RH WIND       PRES   REMARKS
COLBY KS       CLEAR     30  28  93 W10       30.29S
GOVE KS          N/A     32  32 100 MISG        N/A
LENORA KS        N/A     31  32 100 MISG        N/A
NORTON KS      CLEAR     28  23  80 N6        30.28R
SHARON SPRINGS   N/A     30  26  83 CALM        N/A
KIT CARSON CO    N/A     28  24  84 MISG        N/A
YUMA CO          N/A     30  27  90 W6          N/A
$$



USA.gov is the U.S. government's official web portal to all federal, state and local government web resources and services.